Year,Month,Day,Hour,Minute,Value (Times are PST for temperature in C)
2010,08,17,00,00,18.50
2010,08,17,00,01,18.50
2010,08,17,00,02,18.40
2010,08,17,00,03,18.40
2010,08,17,00,04,18.40
2010,08,17,00,05,18.40
2010,08,17,00,06,18.40
2010,08,17,00,07,18.40
2010,08,17,00,08,18.40
2010,08,17,00,09,18.40
2010,08,17,00,10,18.40
2010,08,17,00,11,18.40
2010,08,17,00,12,18.40
2010,08,17,00,13,18.40
2010,08,17,00,14,18.40
2010,08,17,00,15,18.40
2010,08,17,00,16,18.50
2010,08,17,00,17,18.50
2010,08,17,00,18,18.50
2010,08,17,00,19,18.50
2010,08,17,00,20,18.50
2010,08,17,00,21,18.50
2010,08,17,00,22,18.50
2010,08,17,00,23,18.50
2010,08,17,00,24,18.50
2010,08,17,00,25,18.40
2010,08,17,00,26,18.40
2010,08,17,00,27,18.40
2010,08,17,00,28,18.40
2010,08,17,00,29,18.30
2010,08,17,00,30,18.30
2010,08,17,00,31,18.30
2010,08,17,00,32,18.30
2010,08,17,00,33,18.30
2010,08,17,00,34,18.30
2010,08,17,00,35,18.20
2010,08,17,00,36,18.20
2010,08,17,00,37,18.20
2010,08,17,00,38,18.20
2010,08,17,00,39,18.20
2010,08,17,00,40,18.20
2010,08,17,00,41,18.20
2010,08,17,00,42,18.20
2010,08,17,00,43,18.20
2010,08,17,00,44,18.20
2010,08,17,00,45,18.10
2010,08,17,00,46,18.10
2010,08,17,00,47,18.10
2010,08,17,00,48,18.10
2010,08,17,00,49,18.00
2010,08,17,00,50,17.90
2010,08,17,00,51,17.90
2010,08,17,00,52,17.90
2010,08,17,00,53,17.90
2010,08,17,00,54,17.90
2010,08,17,00,55,17.90
2010,08,17,00,56,17.90
2010,08,17,00,57,17.80
2010,08,17,00,58,17.80
2010,08,17,00,59,17.80
2010,08,17,01,00,17.80
2010,08,17,01,01,17.80
2010,08,17,01,02,17.80
2010,08,17,01,03,17.80
2010,08,17,01,04,17.70
2010,08,17,01,05,17.70
2010,08,17,01,06,17.70
2010,08,17,01,07,17.70
2010,08,17,01,08,17.60
2010,08,17,01,09,17.60
2010,08,17,01,10,17.60
2010,08,17,01,11,17.60
2010,08,17,01,12,17.60
2010,08,17,01,13,17.60
2010,08,17,01,14,17.60
2010,08,17,01,15,17.50
2010,08,17,01,16,17.50
2010,08,17,01,17,17.50
2010,08,17,01,18,17.50
2010,08,17,01,19,17.50
2010,08,17,01,20,17.50
2010,08,17,01,21,17.50
2010,08,17,01,22,17.40
2010,08,17,01,23,17.40
2010,08,17,01,24,17.40
2010,08,17,01,25,17.30
2010,08,17,01,26,17.30
2010,08,17,01,27,17.30
2010,08,17,01,28,17.30
2010,08,17,01,29,17.30
2010,08,17,01,30,17.30
2010,08,17,01,31,17.20
2010,08,17,01,32,17.20
2010,08,17,01,33,17.20
2010,08,17,01,34,17.30
2010,08,17,01,35,17.30
2010,08,17,01,36,17.30
2010,08,17,01,37,17.30
2010,08,17,01,38,17.30
2010,08,17,01,39,17.30
2010,08,17,01,40,17.30
2010,08,17,01,41,17.30
2010,08,17,01,42,17.30
2010,08,17,01,43,17.30
2010,08,17,01,44,17.30
2010,08,17,01,45,17.30
2010,08,17,01,46,17.30
2010,08,17,01,47,17.30
2010,08,17,01,48,17.20
2010,08,17,01,49,17.20
2010,08,17,01,50,17.20
2010,08,17,01,51,17.10
2010,08,17,01,52,17.10
2010,08,17,01,53,17.10
2010,08,17,01,54,17.10
2010,08,17,01,55,17.00
2010,08,17,01,56,17.00
2010,08,17,01,57,17.00
2010,08,17,01,58,17.00
2010,08,17,01,59,17.00
2010,08,17,02,00,16.90
2010,08,17,02,01,16.90
2010,08,17,02,02,16.90
2010,08,17,02,03,16.90
2010,08,17,02,04,16.90
2010,08,17,02,05,16.90
2010,08,17,02,06,16.90
2010,08,17,02,07,16.90
2010,08,17,02,08,16.90
2010,08,17,02,09,16.90
2010,08,17,02,10,16.90
2010,08,17,02,11,16.80
2010,08,17,02,12,16.80
2010,08,17,02,13,16.80
2010,08,17,02,14,16.70
2010,08,17,02,15,16.70
2010,08,17,02,16,16.70
2010,08,17,02,17,16.70
2010,08,17,02,18,16.70
2010,08,17,02,19,16.70
2010,08,17,02,20,16.70
2010,08,17,02,21,16.70
2010,08,17,02,22,16.70
2010,08,17,02,23,16.60
2010,08,17,02,24,16.60
2010,08,17,02,25,16.50
2010,08,17,02,26,16.40
2010,08,17,02,27,16.40
2010,08,17,02,28,16.40
2010,08,17,02,29,16.40
2010,08,17,02,30,16.30
2010,08,17,02,31,16.30
2010,08,17,02,32,16.30
2010,08,17,02,33,16.30
2010,08,17,02,34,16.30
2010,08,17,02,35,16.20
2010,08,17,02,36,16.20
2010,08,17,02,37,16.20
2010,08,17,02,38,16.20
2010,08,17,02,39,16.20
2010,08,17,02,40,16.20
2010,08,17,02,41,16.20
2010,08,17,02,42,16.20
2010,08,17,02,43,16.20
2010,08,17,02,44,16.10
2010,08,17,02,45,16.10
2010,08,17,02,46,16.10
2010,08,17,02,47,16.10
2010,08,17,02,48,16.10
2010,08,17,02,49,16.10
2010,08,17,02,50,16.10
2010,08,17,02,51,16.10
2010,08,17,02,52,16.00
2010,08,17,02,53,15.90
2010,08,17,02,54,15.90
2010,08,17,02,55,15.90
2010,08,17,02,56,15.80
2010,08,17,02,57,15.80
2010,08,17,02,58,15.80
2010,08,17,02,59,15.80
2010,08,17,03,00,15.70
2010,08,17,03,01,15.70
2010,08,17,03,02,15.60
2010,08,17,03,03,15.50
2010,08,17,03,04,15.50
2010,08,17,03,05,15.40
2010,08,17,03,06,15.40
2010,08,17,03,07,15.30
2010,08,17,03,08,15.30
2010,08,17,03,09,15.30
2010,08,17,03,10,15.30
2010,08,17,03,11,15.20
2010,08,17,03,12,15.20
2010,08,17,03,13,15.20
2010,08,17,03,14,15.10
2010,08,17,03,15,15.10
2010,08,17,03,16,15.10
2010,08,17,03,17,15.00
2010,08,17,03,18,15.00
2010,08,17,03,19,15.00
2010,08,17,03,20,14.90
2010,08,17,03,21,14.90
2010,08,17,03,22,14.90
2010,08,17,03,23,14.80
2010,08,17,03,24,14.80
2010,08,17,03,25,14.80
2010,08,17,03,26,14.80
2010,08,17,03,27,14.70
2010,08,17,03,28,14.70
2010,08,17,03,29,14.60
2010,08,17,03,30,14.60
2010,08,17,03,31,14.50
2010,08,17,03,32,14.50
2010,08,17,03,33,14.50
2010,08,17,03,34,14.40
2010,08,17,03,35,14.40
2010,08,17,03,36,14.30
2010,08,17,03,37,14.30
2010,08,17,03,38,14.30
2010,08,17,03,39,14.20
2010,08,17,03,40,14.20
2010,08,17,03,41,14.20
2010,08,17,03,42,14.20
2010,08,17,03,43,14.20
2010,08,17,03,44,14.20
2010,08,17,03,45,14.20
2010,08,17,03,46,14.20
2010,08,17,03,47,14.20
2010,08,17,03,48,14.20
2010,08,17,03,49,14.20
2010,08,17,03,50,14.10
2010,08,17,03,51,14.10
2010,08,17,03,52,14.10
2010,08,17,03,53,14.10
2010,08,17,03,54,14.10
2010,08,17,03,55,14.10
2010,08,17,03,56,14.10
2010,08,17,03,57,14.00
2010,08,17,03,58,14.00
2010,08,17,03,59,14.00
2010,08,17,04,00,14.00
2010,08,17,04,01,14.00
2010,08,17,04,02,14.00
2010,08,17,04,03,14.00
2010,08,17,04,04,14.00
2010,08,17,04,05,14.00
2010,08,17,04,06,14.00
2010,08,17,04,07,13.90
2010,08,17,04,08,13.90
2010,08,17,04,09,13.90
2010,08,17,04,10,13.90
2010,08,17,04,11,13.90
2010,08,17,04,12,13.90
2010,08,17,04,13,13.90
2010,08,17,04,14,13.90
2010,08,17,04,15,13.90
2010,08,17,04,16,13.90
2010,08,17,04,17,13.90
2010,08,17,04,18,13.90
2010,08,17,04,19,13.90
2010,08,17,04,20,13.90
2010,08,17,04,21,13.90
2010,08,17,04,22,13.90
2010,08,17,04,23,13.90
2010,08,17,04,24,13.90
2010,08,17,04,25,13.90
2010,08,17,04,26,13.90
2010,08,17,04,27,13.90
2010,08,17,04,28,13.90
2010,08,17,04,29,13.90
2010,08,17,04,30,13.90
2010,08,17,04,31,13.90
2010,08,17,04,32,13.90
2010,08,17,04,33,13.90
2010,08,17,04,34,13.90
2010,08,17,04,35,13.90
2010,08,17,04,36,13.90
2010,08,17,04,37,13.90
2010,08,17,04,38,13.80
2010,08,17,04,39,13.80
2010,08,17,04,40,13.80
2010,08,17,04,41,13.80
2010,08,17,04,42,13.80
2010,08,17,04,43,13.80
2010,08,17,04,44,13.80
2010,08,17,04,45,13.80
2010,08,17,04,46,13.80
2010,08,17,04,47,13.80
2010,08,17,04,48,13.80
2010,08,17,04,49,13.70
2010,08,17,04,50,13.70
2010,08,17,04,51,13.70
2010,08,17,04,52,13.70
2010,08,17,04,53,13.70
2010,08,17,04,54,13.70
2010,08,17,04,55,13.70
2010,08,17,04,56,13.70
2010,08,17,04,57,13.70
2010,08,17,04,58,13.70
2010,08,17,04,59,13.70
2010,08,17,05,00,13.70
2010,08,17,05,01,13.70
2010,08,17,05,02,13.70
2010,08,17,05,03,13.70
2010,08,17,05,04,13.70
2010,08,17,05,05,13.70
2010,08,17,05,06,13.70
2010,08,17,05,07,13.70
2010,08,17,05,08,13.70
2010,08,17,05,09,13.70
2010,08,17,05,10,13.70
2010,08,17,05,11,13.60
2010,08,17,05,12,13.60
2010,08,17,05,13,13.60
2010,08,17,05,14,13.60
2010,08,17,05,15,13.60
2010,08,17,05,16,13.60
2010,08,17,05,17,13.60
2010,08,17,05,18,13.60
2010,08,17,05,19,13.60
2010,08,17,05,20,13.60
2010,08,17,05,21,13.60
2010,08,17,05,22,13.50
2010,08,17,05,23,13.50
2010,08,17,05,24,13.50
2010,08,17,05,25,13.50
2010,08,17,05,26,13.50
2010,08,17,05,27,13.50
2010,08,17,05,28,13.50
2010,08,17,05,29,13.50
2010,08,17,05,30,13.50
2010,08,17,05,31,13.50
2010,08,17,05,32,13.50
2010,08,17,05,33,13.50
2010,08,17,05,34,13.40
2010,08,17,05,35,13.40
2010,08,17,05,36,13.40
2010,08,17,05,37,13.40
2010,08,17,05,38,13.40
2010,08,17,05,39,13.40
2010,08,17,05,40,13.40
2010,08,17,05,41,13.40
2010,08,17,05,42,13.40
2010,08,17,05,43,13.40
2010,08,17,05,44,13.40
2010,08,17,05,45,13.40
2010,08,17,05,46,13.40
2010,08,17,05,47,13.40
2010,08,17,05,48,13.40
2010,08,17,05,49,13.40
2010,08,17,05,50,13.40
2010,08,17,05,51,13.40
2010,08,17,05,52,13.40
2010,08,17,05,53,13.40
2010,08,17,05,54,13.40
2010,08,17,05,55,13.40
2010,08,17,05,56,13.40
2010,08,17,05,57,13.40
2010,08,17,05,58,13.40
2010,08,17,05,59,13.30
2010,08,17,06,00,13.30
2010,08,17,06,01,13.30
2010,08,17,06,02,13.30
2010,08,17,06,03,13.30
2010,08,17,06,04,13.30
2010,08,17,06,05,13.30
2010,08,17,06,06,13.30
2010,08,17,06,07,13.30
2010,08,17,06,08,13.30
2010,08,17,06,09,13.30
2010,08,17,06,10,13.30
2010,08,17,06,11,13.30
2010,08,17,06,12,13.30
2010,08,17,06,13,13.30
2010,08,17,06,14,13.30
2010,08,17,06,15,13.30
2010,08,17,06,16,13.30
2010,08,17,06,17,13.20
2010,08,17,06,18,13.20
2010,08,17,06,19,13.20
2010,08,17,06,20,13.20
2010,08,17,06,21,13.20
2010,08,17,06,22,13.20
2010,08,17,06,23,13.20
2010,08,17,06,24,13.20
2010,08,17,06,25,13.10
2010,08,17,06,26,13.10
2010,08,17,06,27,13.10
2010,08,17,06,28,13.10
2010,08,17,06,29,13.10
2010,08,17,06,30,13.10
2010,08,17,06,31,13.10
2010,08,17,06,32,13.10
2010,08,17,06,33,13.20
2010,08,17,06,34,13.20
2010,08,17,06,35,13.20
2010,08,17,06,36,13.20
2010,08,17,06,37,13.20
2010,08,17,06,38,13.20
2010,08,17,06,39,13.20
2010,08,17,06,40,13.30
2010,08,17,06,41,13.30
2010,08,17,06,42,13.30
2010,08,17,06,43,13.30
2010,08,17,06,44,13.30
2010,08,17,06,45,13.30
2010,08,17,06,46,13.30
2010,08,17,06,47,13.40
2010,08,17,06,48,13.40
2010,08,17,06,49,13.40
2010,08,17,06,50,13.40
2010,08,17,06,51,13.50
2010,08,17,06,52,13.50
2010,08,17,06,53,13.50
2010,08,17,06,54,13.50
2010,08,17,06,55,13.60
2010,08,17,06,56,13.60
2010,08,17,06,57,13.60
2010,08,17,06,58,13.70
2010,08,17,06,59,13.70
2010,08,17,07,00,13.70
2010,08,17,07,01,13.70
2010,08,17,07,02,13.70
2010,08,17,07,03,13.70
2010,08,17,07,04,13.80
2010,08,17,07,05,13.80
2010,08,17,07,06,13.80
2010,08,17,07,07,13.90
2010,08,17,07,08,13.90
2010,08,17,07,09,13.90
2010,08,17,07,10,14.00
2010,08,17,07,11,14.00
2010,08,17,07,12,14.10
2010,08,17,07,13,14.10
2010,08,17,07,14,14.20
2010,08,17,07,15,14.20
2010,08,17,07,16,14.20
2010,08,17,07,17,14.20
2010,08,17,07,18,14.30
2010,08,17,07,19,14.30
2010,08,17,07,20,14.40
2010,08,17,07,21,14.40
2010,08,17,07,22,14.50
2010,08,17,07,23,14.50
2010,08,17,07,24,14.60
2010,08,17,07,25,14.60
2010,08,17,07,26,14.70
2010,08,17,07,27,14.80
2010,08,17,07,28,14.80
2010,08,17,07,29,14.80
2010,08,17,07,30,14.80
2010,08,17,07,31,14.90
2010,08,17,07,32,15.00
2010,08,17,07,33,15.00
2010,08,17,07,34,15.10
2010,08,17,07,35,15.10
2010,08,17,07,36,15.20
2010,08,17,07,37,15.20
2010,08,17,07,38,15.30
2010,08,17,07,39,15.30
2010,08,17,07,40,15.30
2010,08,17,07,41,15.40
2010,08,17,07,42,15.40
2010,08,17,07,43,15.50
2010,08,17,07,44,15.50
2010,08,17,07,45,15.60
2010,08,17,07,46,15.60
2010,08,17,07,47,15.70
2010,08,17,07,48,15.80
2010,08,17,07,49,15.80
2010,08,17,07,50,15.90
2010,08,17,07,51,16.00
2010,08,17,07,52,16.10
2010,08,17,07,53,16.10
2010,08,17,07,54,16.10
2010,08,17,07,55,16.20
2010,08,17,07,56,16.20
2010,08,17,07,57,16.20
2010,08,17,07,58,16.30
2010,08,17,07,59,16.30
2010,08,17,08,00,16.30
2010,08,17,08,01,16.40
2010,08,17,08,02,16.40
2010,08,17,08,03,16.40
2010,08,17,08,04,16.40
2010,08,17,08,05,16.40
2010,08,17,08,06,16.40
2010,08,17,08,07,16.40
2010,08,17,08,08,16.40
2010,08,17,08,09,16.40
2010,08,17,08,10,16.40
2010,08,17,08,11,16.40
2010,08,17,08,12,16.50
2010,08,17,08,13,16.60
2010,08,17,08,14,16.60
2010,08,17,08,15,16.60
2010,08,17,08,16,16.60
2010,08,17,08,17,16.70
2010,08,17,08,18,16.80
2010,08,17,08,19,16.90
2010,08,17,08,20,16.90
2010,08,17,08,21,16.90
2010,08,17,08,22,16.90
2010,08,17,08,23,16.90
2010,08,17,08,24,16.90
2010,08,17,08,25,16.90
2010,08,17,08,26,17.00
2010,08,17,08,27,17.00
2010,08,17,08,28,17.10
2010,08,17,08,29,17.20
2010,08,17,08,30,17.30
2010,08,17,08,31,17.30
2010,08,17,08,32,17.30
2010,08,17,08,33,17.30
2010,08,17,08,34,17.30
2010,08,17,08,35,17.30
2010,08,17,08,36,17.40
2010,08,17,08,37,17.40
2010,08,17,08,38,17.40
2010,08,17,08,39,17.40
2010,08,17,08,40,17.40
2010,08,17,08,41,17.40
2010,08,17,08,42,17.50
2010,08,17,08,43,17.50
2010,08,17,08,44,17.60
2010,08,17,08,45,17.70
2010,08,17,08,46,17.80
2010,08,17,08,47,17.80
2010,08,17,08,48,17.90
2010,08,17,08,49,17.90
2010,08,17,08,50,17.90
2010,08,17,08,51,17.90
2010,08,17,08,52,17.90
2010,08,17,08,53,17.90
2010,08,17,08,54,17.90
2010,08,17,08,55,17.90
2010,08,17,08,56,17.90
2010,08,17,08,57,18.10
2010,08,17,08,58,18.10
2010,08,17,08,59,18.20
2010,08,17,09,00,18.20
2010,08,17,09,01,18.20
2010,08,17,09,02,18.20
2010,08,17,09,03,18.30
2010,08,17,09,04,18.30
2010,08,17,09,05,18.40
2010,08,17,09,06,18.50
2010,08,17,09,07,18.50
2010,08,17,09,08,18.60
2010,08,17,09,09,18.60
2010,08,17,09,10,18.70
2010,08,17,09,11,18.80
2010,08,17,09,12,19.00
2010,08,17,09,13,19.10
2010,08,17,09,14,19.20
2010,08,17,09,15,19.40
2010,08,17,09,16,19.50
2010,08,17,09,17,19.60
2010,08,17,09,18,19.70
2010,08,17,09,19,19.70
2010,08,17,09,20,19.80
2010,08,17,09,21,19.80
2010,08,17,09,22,19.90
2010,08,17,09,23,19.90
2010,08,17,09,24,19.90
2010,08,17,09,25,20.00
2010,08,17,09,26,20.10
2010,08,17,09,27,20.20
2010,08,17,09,28,20.20
2010,08,17,09,29,20.30
2010,08,17,09,30,20.40
2010,08,17,09,31,20.50
2010,08,17,09,32,20.60
2010,08,17,09,33,20.80
2010,08,17,09,34,20.90
2010,08,17,09,35,21.00
2010,08,17,09,36,21.10
2010,08,17,09,37,21.20
2010,08,17,09,38,21.20
2010,08,17,09,39,21.30
2010,08,17,09,40,21.30
2010,08,17,09,41,21.30
2010,08,17,09,42,21.40
2010,08,17,09,43,21.50
2010,08,17,09,44,21.60
2010,08,17,09,45,21.60
2010,08,17,09,46,21.60
2010,08,17,09,47,21.50
2010,08,17,09,48,21.60
2010,08,17,09,49,21.60
2010,08,17,09,50,21.60
2010,08,17,09,51,21.60
2010,08,17,09,52,21.60
2010,08,17,09,53,21.70
2010,08,17,09,54,21.80
2010,08,17,09,55,21.90
2010,08,17,09,56,21.90
2010,08,17,09,57,22.00
2010,08,17,09,58,22.10
2010,08,17,09,59,22.20
2010,08,17,10,00,22.30
2010,08,17,10,01,22.30
2010,08,17,10,02,22.40
2010,08,17,10,03,22.50
2010,08,17,10,04,22.60
2010,08,17,10,05,22.70
2010,08,17,10,06,22.80
2010,08,17,10,07,22.80
2010,08,17,10,08,22.90
2010,08,17,10,09,22.90
2010,08,17,10,10,23.00
2010,08,17,10,11,23.10
2010,08,17,10,12,23.10
2010,08,17,10,13,23.00
2010,08,17,10,14,22.90
2010,08,17,10,15,22.80
2010,08,17,10,16,22.80
2010,08,17,10,17,22.80
2010,08,17,10,18,22.80
2010,08,17,10,19,22.80
2010,08,17,10,20,22.80
2010,08,17,10,21,22.60
2010,08,17,10,22,22.50
2010,08,17,10,23,22.30
2010,08,17,10,24,22.10
2010,08,17,10,25,21.90
2010,08,17,10,26,21.70
2010,08,17,10,27,21.60
2010,08,17,10,28,21.40
2010,08,17,10,29,21.30
2010,08,17,10,30,21.10
2010,08,17,10,31,21.10
2010,08,17,10,32,21.00
2010,08,17,10,33,21.10
2010,08,17,10,34,21.10
2010,08,17,10,35,21.10
2010,08,17,10,36,21.10
2010,08,17,10,37,21.10
2010,08,17,10,38,21.10
2010,08,17,10,39,21.10
2010,08,17,10,40,21.10
2010,08,17,10,41,21.10
2010,08,17,10,42,21.10
2010,08,17,10,43,21.10
2010,08,17,10,44,21.00
2010,08,17,10,45,21.00
2010,08,17,10,46,21.00
2010,08,17,10,47,20.90
2010,08,17,10,48,20.90
2010,08,17,10,49,20.90
2010,08,17,10,50,21.00
2010,08,17,10,51,21.00
2010,08,17,10,52,21.10
2010,08,17,10,53,21.30
2010,08,17,10,54,21.40
2010,08,17,10,55,21.40
2010,08,17,10,56,21.40
2010,08,17,10,57,21.40
2010,08,17,10,58,21.50
2010,08,17,10,59,21.40
2010,08,17,11,00,21.40
2010,08,17,11,01,21.40
2010,08,17,11,02,21.40
2010,08,17,11,03,21.50
2010,08,17,11,04,21.60
2010,08,17,11,05,21.60
2010,08,17,11,06,21.60
2010,08,17,11,07,21.60
2010,08,17,11,08,21.60
2010,08,17,11,09,21.50
2010,08,17,11,10,21.40
2010,08,17,11,11,21.30
2010,08,17,11,12,21.30
2010,08,17,11,13,21.20
2010,08,17,11,14,21.20
2010,08,17,11,15,21.20
2010,08,17,11,16,21.30
2010,08,17,11,17,21.40
2010,08,17,11,18,21.50
2010,08,17,11,19,21.60
2010,08,17,11,20,21.70
2010,08,17,11,21,21.80
2010,08,17,11,22,22.00
2010,08,17,11,23,22.00
2010,08,17,11,24,22.10
2010,08,17,11,25,22.20
2010,08,17,11,26,22.20
2010,08,17,11,27,22.30
2010,08,17,11,28,22.40
2010,08,17,11,29,22.50
2010,08,17,11,30,22.50
2010,08,17,11,31,22.60
2010,08,17,11,32,22.70
2010,08,17,11,33,22.70
2010,08,17,11,34,22.70
2010,08,17,11,35,22.70
2010,08,17,11,36,22.70
2010,08,17,11,37,22.80
2010,08,17,11,38,22.80
2010,08,17,11,39,22.90
2010,08,17,11,40,22.90
2010,08,17,11,41,22.90
2010,08,17,11,42,22.90
2010,08,17,11,43,22.70
2010,08,17,11,44,22.60
2010,08,17,11,45,22.60
2010,08,17,11,46,22.50
2010,08,17,11,47,22.50
2010,08,17,11,48,22.50
2010,08,17,11,49,22.50
2010,08,17,11,50,22.50
2010,08,17,11,51,22.60
2010,08,17,11,52,22.70
2010,08,17,11,53,22.80
2010,08,17,11,54,22.80
2010,08,17,11,55,22.90
2010,08,17,11,56,22.90
2010,08,17,11,57,23.00
2010,08,17,11,58,23.10
2010,08,17,11,59,23.20
2010,08,17,12,00,23.20
2010,08,17,12,01,23.20
2010,08,17,12,02,23.20
2010,08,17,12,03,23.20
2010,08,17,12,04,23.10
2010,08,17,12,05,23.10
2010,08,17,12,06,23.00
2010,08,17,12,07,22.90
2010,08,17,12,08,22.70
2010,08,17,12,09,22.70
2010,08,17,12,10,22.60
2010,08,17,12,11,22.60
2010,08,17,12,12,22.80
2010,08,17,12,13,22.70
2010,08,17,12,14,22.70
2010,08,17,12,15,22.70
2010,08,17,12,16,22.70
2010,08,17,12,17,22.70
2010,08,17,12,18,22.80
2010,08,17,12,19,22.90
2010,08,17,12,20,23.00
2010,08,17,12,21,23.20
2010,08,17,12,22,23.40
2010,08,17,12,23,23.60
2010,08,17,12,24,23.70
2010,08,17,12,25,23.90
2010,08,17,12,26,24.00
2010,08,17,12,27,24.10
2010,08,17,12,28,24.10
2010,08,17,12,29,24.10
2010,08,17,12,30,24.20
2010,08,17,12,31,24.10
2010,08,17,12,32,24.10
2010,08,17,12,33,24.20
2010,08,17,12,34,24.30
2010,08,17,12,35,24.40
2010,08,17,12,36,24.40
2010,08,17,12,37,24.40
2010,08,17,12,38,24.50
2010,08,17,12,39,24.60
2010,08,17,12,40,24.60
2010,08,17,12,41,24.50
2010,08,17,12,42,24.40
2010,08,17,12,43,24.30
2010,08,17,12,44,24.30
2010,08,17,12,45,24.30
2010,08,17,12,46,24.20
2010,08,17,12,47,24.10
2010,08,17,12,48,24.10
2010,08,17,12,49,24.10
2010,08,17,12,50,24.10
2010,08,17,12,51,24.10
2010,08,17,12,52,24.10
2010,08,17,12,53,24.10
2010,08,17,12,54,24.10
2010,08,17,12,55,24.10
2010,08,17,12,56,24.10
2010,08,17,12,57,24.10
2010,08,17,12,58,24.10
2010,08,17,12,59,24.00
2010,08,17,13,00,23.90
2010,08,17,13,01,23.90
2010,08,17,13,02,23.90
2010,08,17,13,03,23.80
2010,08,17,13,04,23.70
2010,08,17,13,05,23.80
2010,08,17,13,06,23.90
2010,08,17,13,07,23.90
2010,08,17,13,08,24.00
2010,08,17,15,17,26.80
2010,08,17,15,18,26.80
2010,08,17,15,19,26.80
2010,08,17,15,20,26.70
2010,08,17,15,21,26.60
2010,08,17,15,22,26.60
2010,08,17,15,23,26.60
2010,08,17,15,24,26.60
2010,08,17,15,25,26.70
2010,08,17,15,26,26.70
2010,08,17,15,27,26.70
2010,08,17,15,28,26.70
2010,08,17,15,29,26.70
2010,08,17,15,30,26.70
2010,08,17,15,31,26.70
2010,08,17,15,32,26.60
2010,08,17,15,33,26.50
2010,08,17,15,34,26.40
2010,08,17,15,35,26.40
2010,08,17,15,36,26.40
2010,08,17,15,37,26.40
2010,08,17,15,38,26.40
2010,08,17,15,39,26.40
2010,08,17,15,40,26.50
2010,08,17,15,41,26.60
2010,08,17,15,42,26.60
2010,08,17,15,43,26.60
2010,08,17,15,44,26.50
2010,08,17,15,45,26.60
2010,08,17,15,46,26.60
2010,08,17,15,47,26.60
2010,08,17,15,48,26.60
2010,08,17,15,49,26.60
2010,08,17,15,50,26.60
2010,08,17,15,51,26.60
2010,08,17,15,52,26.60
2010,08,17,15,53,26.50
2010,08,17,15,54,26.40
2010,08,17,15,55,26.30
2010,08,17,15,56,26.20
2010,08,17,15,57,26.20
2010,08,17,15,58,26.20
2010,08,17,15,59,26.20
2010,08,17,16,00,26.10
2010,08,17,16,01,26.10
2010,08,17,16,02,26.00
2010,08,17,16,03,26.00
2010,08,17,16,04,26.10
2010,08,17,16,05,26.20
2010,08,17,16,06,26.20
2010,08,17,16,07,26.20
2010,08,17,16,08,26.30
2010,08,17,16,09,26.30
2010,08,17,16,10,26.30
2010,08,17,16,11,26.30
2010,08,17,16,12,26.30
2010,08,17,16,13,26.40
2010,08,17,16,14,26.40
2010,08,17,16,15,26.30
2010,08,17,16,16,26.30
2010,08,17,16,17,26.20
2010,08,17,16,18,26.10
2010,08,17,16,19,26.10
2010,08,17,16,20,26.10
2010,08,17,16,21,26.10
2010,08,17,16,22,26.00
2010,08,17,16,23,25.90
2010,08,17,16,24,25.90
2010,08,17,16,25,25.80
2010,08,17,16,26,25.70
2010,08,17,16,27,25.70
2010,08,17,16,28,25.80
2010,08,17,16,29,25.80
2010,08,17,16,30,25.80
2010,08,17,16,31,25.90
2010,08,17,16,32,25.80
2010,08,17,16,33,25.70
2010,08,17,16,34,25.50
2010,08,17,16,35,25.40
2010,08,17,16,36,25.40
2010,08,17,16,37,25.40
2010,08,17,16,38,25.20
2010,08,17,16,39,25.10
2010,08,17,16,40,24.90
2010,08,17,16,41,24.80
2010,08,17,16,42,24.60
2010,08,17,16,43,24.60
2010,08,17,16,44,24.40
2010,08,17,16,45,24.40
2010,08,17,16,46,24.20
2010,08,17,16,47,24.10
2010,08,17,16,48,24.10
2010,08,17,16,49,24.10
2010,08,17,16,50,24.10
2010,08,17,16,51,24.10
2010,08,17,16,52,24.10
2010,08,17,16,53,24.10
2010,08,17,16,54,24.10
2010,08,17,16,55,24.20
2010,08,17,16,56,24.20
2010,08,17,16,57,24.30
2010,08,17,16,58,24.30
2010,08,17,16,59,24.30
2010,08,17,17,00,24.20
2010,08,17,17,01,24.10
2010,08,17,17,02,24.00
2010,08,17,17,03,23.90
2010,08,17,17,04,23.80
2010,08,17,17,05,23.70
2010,08,17,17,06,23.60
2010,08,17,17,07,23.50
2010,08,17,17,08,23.40
2010,08,17,17,09,23.30
2010,08,17,17,10,23.30
2010,08,17,17,11,23.30
2010,08,17,17,12,23.30
2010,08,17,17,13,23.30
2010,08,17,17,14,23.20
2010,08,17,17,15,23.20
2010,08,17,17,16,23.20
2010,08,17,17,17,23.10
2010,08,17,17,18,23.00
2010,08,17,17,19,22.90
2010,08,17,17,20,22.90
2010,08,17,17,21,22.80
2010,08,17,17,22,22.90
2010,08,17,17,23,22.90
2010,08,17,17,24,22.90
2010,08,17,17,25,23.00
2010,08,17,17,26,23.10
2010,08,17,17,27,23.10
2010,08,17,17,28,23.00
2010,08,17,17,29,22.90
2010,08,17,17,30,22.70
2010,08,17,17,31,22.60
2010,08,17,17,32,22.50
2010,08,17,17,33,22.40
2010,08,17,17,34,22.40
2010,08,17,17,35,22.40
2010,08,17,17,36,22.40
2010,08,17,17,37,22.30
2010,08,17,17,38,22.30
2010,08,17,17,39,22.30
2010,08,17,17,40,22.30
2010,08,17,17,41,22.30
2010,08,17,17,42,22.30
2010,08,17,17,43,22.30
2010,08,17,17,44,22.30
2010,08,17,17,45,22.30
2010,08,17,17,46,22.40
2010,08,17,17,47,22.40
2010,08,17,17,48,22.40
2010,08,17,17,49,22.40
2010,08,17,17,50,22.30
2010,08,17,17,51,22.20
2010,08,17,17,52,22.10
2010,08,17,17,53,22.10
2010,08,17,17,54,22.00
2010,08,17,17,55,21.90
2010,08,17,17,56,21.90
2010,08,17,17,57,21.80
2010,08,17,17,58,21.90
2010,08,17,17,59,21.90
2010,08,17,18,00,22.00
2010,08,17,18,01,22.00
2010,08,17,18,02,22.00
2010,08,17,18,03,22.10
2010,08,17,18,04,22.20
2010,08,17,18,05,22.20
2010,08,17,18,06,22.30
2010,08,17,18,07,22.40
2010,08,17,18,08,22.40
2010,08,17,18,09,22.50
2010,08,17,18,10,22.50
2010,08,17,18,11,22.50
2010,08,17,18,12,22.50
2010,08,17,18,13,22.40
2010,08,17,18,14,22.40
2010,08,17,18,15,22.40
2010,08,17,18,16,22.50
2010,08,17,18,17,22.50
2010,08,17,18,18,22.50
2010,08,17,18,19,22.60
2010,08,17,18,20,22.60
2010,08,17,18,21,22.60
2010,08,17,18,22,22.60
2010,08,17,18,23,22.60
2010,08,17,18,24,22.60
2010,08,17,18,25,22.60
2010,08,17,18,26,22.60
2010,08,17,18,27,22.70
2010,08,17,18,28,22.70
2010,08,17,18,29,22.70
2010,08,17,18,30,22.80
2010,08,17,18,31,22.70
2010,08,17,18,32,22.70
2010,08,17,18,33,22.70
2010,08,17,18,34,22.70
2010,08,17,18,35,22.70
2010,08,17,18,36,22.70
2010,08,17,18,37,22.70
2010,08,17,18,38,22.70
2010,08,17,18,39,22.70
2010,08,17,18,40,22.60
2010,08,17,18,41,22.60
2010,08,17,18,42,22.50
2010,08,17,18,43,22.50
2010,08,17,18,44,22.50
2010,08,17,18,45,22.50
2010,08,17,18,46,22.50
2010,08,17,18,47,22.50
2010,08,17,18,48,22.40
2010,08,17,18,49,22.40
2010,08,17,18,50,22.40
2010,08,17,18,51,22.30
2010,08,17,18,52,22.30
2010,08,17,18,53,22.20
2010,08,17,18,54,22.20
2010,08,17,18,55,22.10
2010,08,17,18,56,22.00
2010,08,17,18,57,22.00
2010,08,17,18,58,21.90
2010,08,17,18,59,21.90
2010,08,17,19,00,21.80
2010,08,17,19,01,21.80
2010,08,17,19,02,21.80
2010,08,17,19,03,21.80
2010,08,17,19,04,21.70
2010,08,17,19,05,21.70
2010,08,17,19,06,21.70
2010,08,17,19,07,21.70
2010,08,17,19,08,21.70
2010,08,17,19,09,21.60
2010,08,17,19,10,21.60
2010,08,17,19,11,21.60
2010,08,17,19,12,21.60
2010,08,17,19,13,21.60
2010,08,17,19,14,21.60
2010,08,17,19,15,21.60
2010,08,17,19,16,21.60
2010,08,17,19,17,21.60
2010,08,17,19,18,21.50
2010,08,17,19,19,21.50
2010,08,17,19,20,21.40
2010,08,17,19,21,21.40
2010,08,17,19,22,21.50
2010,08,17,19,23,21.60
2010,08,17,19,24,21.50
2010,08,17,19,25,21.50
2010,08,17,19,26,21.50
2010,08,17,19,27,21.40